User: anonymous   Login
Location: Dumpton Point
(51.3500°N, 1.4433°E)
Time: 00:54:48
(UTC+00:00)
Language:

SR - Orbit

View from above orbital plane
View from above orbital plane
View from above satellite
View from above satellite

Ground track
Ground track

The orbit data is extracted from the following two-line orbital elements,

1 00046U 60007B   21108.61221184  .00000055  00000-0  33608-4 0  9994
2 00046  66.6894 301.9215 0217583 263.9768  93.6508 14.49387483183339
Epoch (UTC): 18 April 2021 14:41:35
Eccentricity: 0.0217583
inclination: 66.6894°
perigee height: 573 km
apogee height: 882 km
right ascension of ascending node: 301.9215°
argument of perigee: 263.9768°
revolutions per day: 14.49387483
mean anomaly at epoch: 93.6508°
orbit number at epoch: 18333

The dashed part of the orbit path shows where the satellite is in the earth's shadow,  

DLR